Location: Notre Dame Regional High School Observatory
(37.3056°N, 89.6097°W)
Time: 19:41:26
(UTC-05:00)

Okean 2 Rocket - Visible Passes

Search period start: 24 July 2017 00:00
Search period end: 03 August 2017 00:00
Orbit: 617 x 641 km, 82.5° (Epoch: 24 July)

Date Brightness Start Highest point End Pass type
(mag) Time Alt. Az. Time Alt. Az. Time Alt. Az.
24 Jul 4.9 00:22:31 28° NNW 00:22:31 28° NNW 00:25:02 10° N visible
24 Jul 4.9 23:05:30 21° NE 23:05:30 21° NE 23:07:24 10° NNE visible
25 Jul 5.5 00:42:51 18° NW 00:42:51 18° NW 00:44:54 10° NNW visible
25 Jul 4.4 23:25:49 34° NNE 23:25:49 34° NNE 23:28:24 10° NNE visible
26 Jul 4.5 23:46:07 37° NNW 23:46:07 37° NNW 23:48:59 10° N visible
27 Jul 5.0 22:29:03 18° ENE 22:29:03 18° ENE 22:30:47 10° NE visible
28 Jul 5.1 00:06:24 25° NW 00:06:24 25° NW 00:09:08 10° NNW visible
28 Jul 4.3 22:49:18 32° NE 22:49:18 32° NE 22:52:05 10° NNE visible
29 Jul 5.7 00:26:40 14° WNW 00:26:40 14° WNW 00:28:28 10° NW visible
29 Jul 3.9 23:09:34 49° N 23:09:34 49° N 23:12:50 10° N visible
30 Jul 5.1 21:52:25 14° ENE 21:52:25 14° ENE 21:53:55 10° NE visible
30 Jul 4.5 23:29:46 36° NW 23:29:46 36° NW 23:33:12 10° N visible
31 Jul 4.2 22:12:36 28° ENE 22:12:36 28° ENE 22:15:38 10° NNE visible
31 Jul 5.3 23:49:58 19° WNW 23:49:58 19° WNW 23:53:01 10° NNW visible
01 Aug 3.3 22:32:46 59° NE 22:32:46 59° NE 22:36:36 10° NNE visible
02 Aug 5.2 21:15:34 11° E 21:15:34 11° E 21:16:16 10° ENE visible
02 Aug 3.6 22:52:55 55° WNW 22:52:55 55° WNW 22:57:10 10° N visible
